Meteo orario Abay (Tyulkubasskiy rayon)

Oggi, 20 Giugno, Domenica

Tempo Temperatura Precipitazioni Vento Pressione Umidità
00:00 +17°C° 0 mm 6 m/s 704 mm Hg 28%
01:00 +16°C° 0 mm 6 m/s 704 mm Hg 30%
02:00 +15°C° 0 mm 6 m/s 704 mm Hg 32%
03:00 +15°C° 0 mm 6 m/s 704 mm Hg 34%
04:00 +14°C° 0 mm 6 m/s 704 mm Hg 37%
05:00 +14°C° 0 mm 6 m/s 704 mm Hg 38%
06:00 +16°C° 0 mm 6 m/s 705 mm Hg 37%
07:00 +17°C° 0 mm 7 m/s 705 mm Hg 35%
08:00 +20°C° 0 mm 7 m/s 705 mm Hg 34%
09:00 +22°C° 0 mm 7 m/s 705 mm Hg 31%
10:00 +23°C° 0 mm 7 m/s 705 mm Hg 29%
11:00 +26°C° 0 mm 7 m/s 705 mm Hg 26%
12:00 +27°C° 0 mm 7 m/s 705 mm Hg 24%
13:00 +28°C° 0 mm 7 m/s 705 mm Hg 22%
14:00 +29°C° 0 mm 7 m/s 705 mm Hg 20%
15:00 +29°C° 0 mm 8 m/s 705 mm Hg 20%
16:00 +28°C° 0 mm 9 m/s 705 mm Hg 19%
17:00 +28°C° 0 mm 9 m/s 704 mm Hg 19%
18:00 +26°C° 0 mm 8 m/s 704 mm Hg 20%
19:00 +23°C° 0 mm 8 m/s 704 mm Hg 22%
20:00 +21°C° 0 mm 7 m/s 704 mm Hg 23%
21:00 +20°C° 0 mm 6 m/s 704 mm Hg 25%
22:00 +17°C° 0 mm 6 m/s 704 mm Hg 26%
23:00 +16°C° 0 mm 5 m/s 704 mm Hg 27%

Domani, 21 Giugno, Lunedi

Tempo Temperatura Precipitazioni Vento Pressione Umidità
00:00 +16°C° 0 mm 5 m/s 704 mm Hg 28%
01:00 +15°C° 0 mm 4 m/s 704 mm Hg 29%
02:00 +14°C° 0 mm 4 m/s 704 mm Hg 30%
03:00 +14°C° 0 mm 4 m/s 704 mm Hg 30%
04:00 +14°C° 0 mm 3 m/s 704 mm Hg 31%
05:00 +14°C° 0 mm 3 m/s 704 mm Hg 32%
06:00 +19°C° 0 mm 3 m/s 704 mm Hg 28%
07:00 +23°C° 0 mm 2 m/s 704 mm Hg 24%
08:00 +26°C° 0 mm 1 m/s 705 mm Hg 20%
09:00 +28°C° 0 mm 2 m/s 705 mm Hg 18%
10:00 +29°C° 0 mm 3 m/s 705 mm Hg 17%
11:00 +32°C° 0 mm 4 m/s 705 mm Hg 15%
12:00 +33°C° 0 mm 5 m/s 705 mm Hg 13%
13:00 +34°C° 0 mm 5 m/s 705 mm Hg 12%
14:00 +35°C° 0 mm 6 m/s 705 mm Hg 10%
15:00 +35°C° 0 mm 6 m/s 705 mm Hg 11%
16:00 +34°C° 0 mm 6 m/s 705 mm Hg 13%
17:00 +34°C° 0 mm 5 m/s 705 mm Hg 14%
18:00 +30°C° 0 mm 4 m/s 705 mm Hg 19%
19:00 +28°C° 0 mm 3 m/s 705 mm Hg 24%
20:00 +25°C° 0 mm 2 m/s 704 mm Hg 29%
21:00 +24°C° 0 mm 2 m/s 705 mm Hg 35%
22:00 +23°C° 0 mm 2 m/s 705 mm Hg 41%
23:00 +20°C° 0 mm 2 m/s 705 mm Hg 46%

Dopodomani, 22 Giugno, Martedi

Tempo Temperatura Precipitazioni Vento Pressione Umidità
00:00 +20°C° 0 mm 3 m/s 705 mm Hg 47%
01:00 +19°C° 0 mm 3 m/s 705 mm Hg 48%
02:00 +19°C° 0 mm 3 m/s 705 mm Hg 48%
03:00 +18°C° 0 mm 3 m/s 705 mm Hg 46%
04:00 +17°C° 0 mm 3 m/s 705 mm Hg 43%
05:00 +17°C° 0 mm 3 m/s 705 mm Hg 40%
06:00 +19°C° 0 mm 3 m/s 705 mm Hg 38%
07:00 +21°C° 0 mm 4 m/s 705 mm Hg 36%
08:00 +23°C° 0 mm 4 m/s 706 mm Hg 34%
09:00 +26°C° 0 mm 3 m/s 706 mm Hg 31%
10:00 +28°C° 0 mm 3 m/s 706 mm Hg 29%
11:00 +30°C° 0 mm 3 m/s 706 mm Hg 26%
12:00 +31°C° 0 mm 3 m/s 706 mm Hg 24%
13:00 +33°C° 0 mm 3 m/s 706 mm Hg 21%
14:00 +34°C° 0 mm 3 m/s 705 mm Hg 19%
15:00 +33°C° 0 mm 4 m/s 705 mm Hg 19%
16:00 +33°C° 0 mm 5 m/s 705 mm Hg 20%
17:00 +32°C° 0 mm 6 m/s 705 mm Hg 20%
18:00 +28°C° 0 mm 6 m/s 705 mm Hg 22%
19:00 +26°C° 0 mm 6 m/s 706 mm Hg 25%
20:00 +22°C° 0 mm 6 m/s 706 mm Hg 27%
21:00 +21°C° 0 mm 6 m/s 706 mm Hg 28%
22:00 +20°C° 0 mm 6 m/s 706 mm Hg 30%
23:00 +19°C° 0 mm 5 m/s 706 mm Hg 31%

23 Giugno, Mercoledi

Tempo Temperatura Precipitazioni Vento Pressione Umidità
00:00 +17°C° 0 mm 5 m/s 705 mm Hg 35%
01:00 +15°C° 0 mm 5 m/s 705 mm Hg 39%
02:00 +14°C° 0 mm 5 m/s 705 mm Hg 43%
03:00 +14°C° 0 mm 5 m/s 705 mm Hg 44%
04:00 +13°C° 0 mm 5 m/s 705 mm Hg 46%
05:00 +13°C° 0 mm 5 m/s 705 mm Hg 48%
06:00 +16°C° 0 mm 5 m/s 705 mm Hg 41%
07:00 +20°C° 0 mm 5 m/s 705 mm Hg 35%
08:00 +23°C° 0 mm 5 m/s 706 mm Hg 28%
09:00 +26°C° 0 mm 5 m/s 706 mm Hg 25%
10:00 +28°C° 0 mm 4 m/s 706 mm Hg 22%
11:00 +30°C° 0 mm 4 m/s 706 mm Hg 20%
12:00 +32°C° 0 mm 4 m/s 706 mm Hg 18%
13:00 +33°C° 0 mm 4 m/s 706 mm Hg 16%
14:00 +34°C° 0 mm 4 m/s 706 mm Hg 15%
15:00 +34°C° 0 mm 4 m/s 706 mm Hg 15%
16:00 +34°C° 0 mm 5 m/s 705 mm Hg 15%
17:00 +34°C° 0 mm 5 m/s 705 mm Hg 15%
18:00 +30°C° 0 mm 5 m/s 705 mm Hg 17%
19:00 +27°C° 0 mm 5 m/s 705 mm Hg 20%
20:00 +25°C° 0 mm 5 m/s 705 mm Hg 22%
21:00 +22°C° 0 mm 5 m/s 705 mm Hg 25%
22:00 +21°C° 0 mm 4 m/s 705 mm Hg 27%
23:00 +19°C° 0 mm 4 m/s 705 mm Hg 30%

24 Giugno, Giovedi

Tempo Temperatura Precipitazioni Vento Pressione Umidità
00:00 +19°C° 0 mm 3 m/s 705 mm Hg 30%
01:00 +19°C° 0 mm 3 m/s 704 mm Hg 31%
02:00 +18°C° 0 mm 3 m/s 704 mm Hg 31%
03:00 +18°C° 0 mm 2 m/s 704 mm Hg 31%
04:00 +18°C° 0 mm 2 m/s 704 mm Hg 31%
05:00 +18°C° 0 mm 2 m/s 704 mm Hg 31%
06:00 +23°C° 0 mm 2 m/s 704 mm Hg 28%
07:00 +26°C° 0 mm 2 m/s 705 mm Hg 25%
08:00 +29°C° 0 mm 2 m/s 705 mm Hg 23%
09:00 +30°C° 0 mm 2 m/s 705 mm Hg 23%
10:00 +31°C° 0 mm 3 m/s 705 mm Hg 22%
11:00 +34°C° 0 mm 4 m/s 705 mm Hg 22%
12:00 +34°C° 0 mm 4 m/s 705 mm Hg 22%
13:00 +35°C° 0 mm 4 m/s 705 mm Hg 22%
14:00 +36°C° 0 mm 5 m/s 705 mm Hg 21%
15:00 +35°C° 0 mm 5 m/s 705 mm Hg 22%
16:00 +35°C° 0 mm 5 m/s 705 mm Hg 23%
17:00 +34°C° 0 mm 5 m/s 704 mm Hg 24%
18:00 +32°C° 0 mm 5 m/s 705 mm Hg 28%
19:00 +28°C° 0 mm 6 m/s 705 mm Hg 32%
20:00 +24°C° 0 mm 6 m/s 705 mm Hg 36%
21:00 +23°C° 0 mm 6 m/s 705 mm Hg 34%
22:00 +21°C° 0 mm 5 m/s 705 mm Hg 32%
23:00 +20°C° 0 mm 5 m/s 705 mm Hg 29%

25 Giugno, Venerdi

Tempo Temperatura Precipitazioni Vento Pressione Umidità
00:00 +19°C° 0 mm 4 m/s 704 mm Hg 30%
01:00 +18°C° 0 mm 4 m/s 704 mm Hg 31%
02:00 +17°C° 0 mm 4 m/s 703 mm Hg 32%
03:00 +17°C° 0 mm 4 m/s 703 mm Hg 37%
04:00 +15°C° 0 mm 4 m/s 703 mm Hg 42%
05:00 +15°C° 0 mm 4 m/s 703 mm Hg 48%
06:00 +18°C° 0 mm 4 m/s 703 mm Hg 43%
07:00 +21°C° 0 mm 5 m/s 703 mm Hg 39%
08:00 +23°C° 0 mm 5 m/s 704 mm Hg 34%
09:00 +26°C° 0 mm 5 m/s 704 mm Hg 31%
10:00 +28°C° 0 mm 5 m/s 704 mm Hg 27%
11:00 +30°C° 0 mm 5 m/s 704 mm Hg 23%
12:00 +32°C° 0 mm 6 m/s 703 mm Hg 21%
13:00 +33°C° 0 mm 6 m/s 703 mm Hg 20%
14:00 +34°C° 0 mm 6 m/s 703 mm Hg 18%
15:00 +33°C° 0 mm 7 m/s 703 mm Hg 17%
16:00 +33°C° 0 mm 8 m/s 702 mm Hg 17%
17:00 +32°C° 0 mm 8 m/s 702 mm Hg 16%
18:00 +29°C° 0 mm 7 m/s 702 mm Hg 18%
19:00 +27°C° 0 mm 7 m/s 702 mm Hg 19%
20:00 +24°C° 0 mm 6 m/s 701 mm Hg 21%
21:00 +22°C° 0 mm 5 m/s 701 mm Hg 23%
22:00 +21°C° 0 mm 5 m/s 701 mm Hg 26%
23:00 +19°C° 0 mm 4 m/s 701 mm Hg 28%
Mostrare altro

Abbiamo bisogno del tuo consenso

Meteoprog e i nostri fornitori di servizi possono memorizzare e accedere a dati personali come cookie, identificatori di dispositivi o altre tecnologie simili sul tuo dispositivo e possono elaborare tali dati per personalizzare i contenuti e gli annunci, nonché fornire funzionalità dei social media e analizzarne il traffico.

  • Archiviare e/o accedere alle informazioni sul tuo dispositivo

    Cookie, identificatori di dispositivi o altre informazioni possono essere memorizzati o resi accessibili sul tuo dispositivo per le finalità sopra indicate.

  • Annunci e contenuti personalizzati, misurazione di annunci e contenuti, approfondimenti sul pubblico e sviluppo di prodotti

    Gli annunci e i contenuti possono essere personalizzati in base a un profilo. È possibile aggiungere più dati per personalizzare meglio annunci e contenuti. È possibile misurare il rendimento degli annunci e dei contenuti. È possibile ricavare informazioni sul pubblico che ha visto gli annunci e i contenuti. Tali dati possono essere utilizzati per sviluppare o migliorare l'esperienza, i sistemi e il software dell'utente.

Cliccando su “Accetto”, acconsenti all'uso di cookie, identificatori di dispositivo, web beacon o altre tecnologie simili. Puoi modificare le impostazioni nel browser del tuo dispositivo.

Per determinati scopi, è possibile fare affidamento su interessi legali, piuttosto che sul consenso. Puoi approfondire questo argomento consultando la nostra Informativa sulla privacy e sui cookie.